Change the Weather History Date:

Sunday, September 16, 2012

  Actual Average (KFSM) Record (KFSM)
Temperature  
Mean Temperature 70 °F 74 °F  
Max Temperature 73 °F 85 °F 101 °F (1956)
Min Temperature 66 °F 62 °F 44 °F (1979)
Degree Days  
Heating Degree Days 0 0  
Month to date heating degree days 0  
Since 1 July heating degree days 0  
Cooling Degree Days 4 9  
Month to date cooling degree days 187  
Year to date cooling degree days 1882  
Growing Degree Days 20 (Base 50)    
Moisture  
Dew Point 70 °F    
Average Humidity 98    
Maximum Humidity 100    
Minimum Humidity 94    
Precipitation  
Precipitation 0.35 in 0.14 in 2.30 in (1958)
Month to date precipitation 2.08  
Year to date precipitation 31.44  
Sea Level Pressure  
Sea Level Pressure 30.04 in    
Wind  
Wind Speed 0 mph (WSW)    
Max Wind Speed 5 mph    
Max Gust Speed -    
Visibility 5 miles    
Events Fog , Rain    
T = Trace of Precipitation, MM = Missing Value Source: NWS Daily Summary

Daily Weather History Graph

Daily Weather History Graph

Search for Another Location

Airport or City:

Trip Planner

Search our weather history database for the weather conditions in past years. The results will help you decide how hot, cold, wet, or windy it might be!

Date:

Astronomy

Sep. 16, 2012 Rise Set
Actual Time 7:02 AM CDT 7:23 PM CDT
Civil Twilight 6:37 AM CDT 7:48 PM CDT
Nautical Twilight 6:07 AM CDT 8:18 PM CDT
Astronomical Twilight 5:37 AM CDT 8:48 PM CDT
Moon 7:38 AM CDT (9/16) 7:33 PM CDT (9/16)
Length of Visible Light 13h 11m
Length of Day
12h 20m
New Moon, 0% of the Moon is Illuminated
Sep 16
New Moon
Sep 22
First Quarter
Sep 29
Full
Oct 8
Last Quarter
Oct 15
New

Hourly Weather History & Observations

Time (CDT) Temp. Dew Point Humidity Pressure Visibility Wind Dir Wind Speed Gust Speed Precip Events Conditions
12:15 AM 66.2 °F 66.2 °F 100% 30.09 in 0.5 mi Calm Calm - N/A Fog Fog
12:35 AM 66.2 °F 66.2 °F 100% 30.08 in 0.8 mi Calm Calm - N/A   Mist
12:55 AM 66.2 °F 66.2 °F 100% 30.08 in 0.2 mi Calm Calm - N/A Fog Fog
1:15 AM 66.2 °F 66.2 °F 100% 30.08 in 0.8 mi Calm Calm - N/A   Mist
1:35 AM 66.2 °F 66.2 °F 100% 30.08 in 0.5 mi Calm Calm - N/A Fog Fog
1:55 AM 66.2 °F 66.2 °F 100% 30.09 in 0.5 mi Calm Calm - N/A Fog Fog
2:15 AM 68.0 °F 68.0 °F 100% 30.08 in 0.5 mi Calm Calm - N/A Fog Fog
2:55 AM 68.0 °F 68.0 °F 100% 30.08 in 0.5 mi Calm Calm - N/A Fog Fog
3:15 AM 68.0 °F 68.0 °F 100% 30.07 in 0.5 mi Calm Calm - N/A Fog Fog
3:35 AM 68.0 °F 68.0 °F 100% 30.07 in 0.5 mi Calm Calm - N/A Fog Fog
3:55 AM 68.0 °F 68.0 °F 100% 30.07 in 0.5 mi Calm Calm - N/A Fog Fog
4:15 AM 68.0 °F 68.0 °F 100% 30.06 in 0.5 mi Calm Calm - N/A Fog Fog
4:35 AM 68.0 °F 68.0 °F 100% 30.06 in 0.5 mi Calm Calm - N/A Fog Fog
4:55 AM 68.0 °F 68.0 °F 100% 30.06 in 0.8 mi Calm Calm - N/A   Mist
5:15 AM 68.0 °F 68.0 °F 100% 30.06 in 0.5 mi Calm Calm - N/A Fog Fog
5:35 AM 68.0 °F 68.0 °F 100% 30.06 in 0.2 mi Calm Calm - N/A Fog Fog
5:55 AM 68.0 °F 68.0 °F 100% 30.06 in 0.2 mi Calm Calm - N/A Fog Fog
6:15 AM 68.0 °F 68.0 °F 100% 30.06 in 0.2 mi Calm Calm - N/A Fog Fog
6:35 AM 68.0 °F 68.0 °F 100% 30.06 in 0.5 mi Calm Calm - N/A Fog Fog
7:15 AM 68.0 °F 68.0 °F 100% 30.06 in 1.8 mi Calm Calm - N/A   Mist
7:35 AM 69.8 °F 69.8 °F 100% 30.06 in 0.2 mi Calm Calm - N/A Fog Fog
7:55 AM 69.8 °F 69.8 °F 100% 30.07 in 0.2 mi Calm Calm - N/A Fog Fog
8:15 AM 69.8 °F 69.8 °F 100% 30.07 in 0.5 mi Calm Calm - N/A Fog Fog
8:35 AM 69.8 °F 69.8 °F 100% 30.07 in 1.0 mi Calm Calm - N/A   Mist
8:55 AM 69.8 °F 69.8 °F 100% 30.07 in 2.0 mi Calm Calm - N/A Rain Light Rain
9:15 AM 69.8 °F 69.8 °F 100% 30.08 in 4.0 mi Calm Calm - N/A   Mist
9:35 AM 71.6 °F 71.6 °F 100% 30.08 in 4.0 mi Calm Calm - N/A   Mist
9:55 AM 71.6 °F 71.6 °F 100% 30.08 in 4.0 mi Calm Calm - N/A Rain Light Rain
10:15 AM 71.6 °F 71.6 °F 100% 30.08 in 4.0 mi Calm Calm - N/A Rain Light Rain
10:35 AM 71.6 °F 71.6 °F 100% 30.08 in 4.0 mi Calm Calm - 0.02 in Rain Light Rain
10:55 AM 71.6 °F 71.6 °F 100% 30.08 in 5.0 mi Calm Calm - 0.03 in Rain Light Rain
11:15 AM 71.6 °F 71.6 °F 100% 30.07 in 5.0 mi Calm Calm - 0.01 in Rain Light Rain
11:35 AM 71.6 °F 71.6 °F 100% 30.07 in 5.0 mi Calm Calm - 0.02 in Rain Light Rain
11:55 AM 71.6 °F 71.6 °F 100% 30.07 in 5.0 mi Calm Calm - 0.03 in Rain Light Rain
12:15 PM 73.4 °F 73.4 °F 100% 30.07 in 7.0 mi Calm Calm - 0.01 in Rain Light Rain
12:35 PM 73.4 °F 73.4 °F 100% 30.06 in 7.0 mi Calm Calm - 0.02 in Rain Rain
12:55 PM 73.4 °F 73.4 °F 100% 30.06 in 5.0 mi Calm Calm - 0.04 in Rain Rain
1:15 PM 73.4 °F 73.4 °F 100% 30.06 in 7.0 mi Calm Calm - 0.01 in Rain Rain
1:35 PM 73.4 °F 73.4 °F 100% 30.06 in 7.0 mi Calm Calm - 0.02 in Rain Light Rain
1:55 PM 73.4 °F 73.4 °F 100% 30.05 in 7.0 mi Calm Calm - 0.04 in Rain Light Rain
2:15 PM 73.4 °F 71.6 °F 94% 30.05 in 10.0 mi Calm Calm - N/A Rain Light Rain
2:35 PM 73.4 °F 71.6 °F 94% 30.04 in 10.0 mi Calm Calm - 0.01 in Rain Light Rain
2:55 PM 73.4 °F 71.6 °F 94% 30.03 in 10.0 mi Calm Calm - 0.01 in Rain Light Rain
3:15 PM 73.4 °F 71.6 °F 94% 30.03 in 10.0 mi Calm Calm - N/A Rain Light Rain
3:35 PM 73.4 °F 71.6 °F 94% 30.02 in 10.0 mi Calm Calm - 0.01 in Rain Light Rain
3:55 PM 73.4 °F 71.6 °F 94% 30.02 in 10.0 mi WSW 3.5 mph - 0.01 in   Unknown
4:15 PM 73.4 °F 71.6 °F 94% 30.02 in 10.0 mi Calm Calm - N/A Rain Light Rain
4:35 PM 73.4 °F 71.6 °F 94% 30.01 in 10.0 mi WSW 4.6 mph - N/A Rain Light Rain
4:55 PM 73.4 °F 71.6 °F 94% 30.01 in 10.0 mi Calm Calm - N/A Rain Light Rain
5:15 PM 73.4 °F 71.6 °F 94% 30.01 in 10.0 mi Calm Calm - N/A Rain Light Rain
5:35 PM 73.4 °F 71.6 °F 94% 30.01 in 10.0 mi Calm Calm - N/A   Light Drizzle
5:55 PM 73.4 °F 71.6 °F 94% 30.01 in 10.0 mi Calm Calm - 0.01 in Rain Light Rain
6:15 PM 71.6 °F 69.8 °F 94% 30.00 in 10.0 mi Calm Calm - 0.01 in Rain Light Rain
6:35 PM 71.6 °F 69.8 °F 94% 29.99 in 10.0 mi Calm Calm - 0.02 in Rain Rain
6:55 PM 71.6 °F 69.8 °F 94% 29.99 in 10.0 mi Calm Calm - 0.02 in Rain Rain
7:15 PM 71.6 °F 69.8 °F 94% 29.99 in 10.0 mi Calm Calm - N/A Rain Rain
7:35 PM 71.6 °F 69.8 °F 94% 29.99 in 10.0 mi Calm Calm - N/A Rain Light Rain
7:55 PM 71.6 °F 69.8 °F 94% 29.99 in 10.0 mi Calm Calm - N/A   Light Drizzle
8:15 PM 71.6 °F 71.6 °F 100% 30.00 in 10.0 mi Calm Calm - N/A   Unknown
8:35 PM 71.6 °F 71.6 °F 100% 30.00 in 10.0 mi Calm Calm - N/A   Unknown
8:55 PM 71.6 °F 69.8 °F 94% 30.00 in 10.0 mi Calm Calm - N/A   Unknown
9:15 PM 71.6 °F 69.8 °F 94% 30.00 in 10.0 mi Calm Calm - N/A   Light Drizzle
9:35 PM 71.6 °F 69.8 °F 94% 30.00 in 10.0 mi Calm Calm - N/A Rain Rain
9:55 PM 71.6 °F 71.6 °F 100% 30.01 in 7.0 mi Calm Calm - N/A Rain Rain
10:15 PM 71.6 °F 71.6 °F 100% 30.01 in 4.0 mi Calm Calm - 0.01 in Rain Light Rain
10:35 PM 71.6 °F 71.6 °F 100% 30.01 in 3.0 mi Calm Calm - 0.06 in Rain Rain
10:55 PM 71.6 °F 71.6 °F 100% 30.01 in 3.0 mi Calm Calm - 0.11 in Rain Rain
11:15 PM 71.6 °F 71.6 °F 100% 30.01 in 4.0 mi Calm Calm - 0.03 in Rain Light Rain
11:35 PM 71.6 °F 71.6 °F 100% 30.01 in 5.0 mi Calm Calm - 0.04 in Rain Light Rain
11:55 PM 71.6 °F 71.6 °F 100% 30.00 in 5.0 mi Calm Calm - 0.05 in Rain Light Rain